This is the latest recevied weather packets stored in our database for station/object KF7SOJ. If no packets are shown the sender has not sent any weather packets the latest 10 day(s).
| Time | Temp. | Humidity | Pressure | Rain* | Wind** | Luminosity | Snow |
|---|---|---|---|---|---|---|---|
| 1788368375 | 21.11° C | 45% | 926.1 hPa | 0 mm | - | 438 W/m² | - |
| 1788368074 | 21.11° C | 44% | 926.3 hPa | 0 mm | - | 302 W/m² | - |
| 1788367774 | 20.56° C | 43% | 926.3 hPa | 0 mm | - | 279 W/m² | - |
| 1788367469 | 20.56° C | 47% | 925.8 hPa | 0 mm | - | 229 W/m² | - |
| 1788367169 | 20° C | 48% | 926 hPa | 0 mm | - | 209 W/m² | - |
| 1788366864 | 19.44° C | 50% | 926.1 hPa | 0 mm | - | 245 W/m² | - |
| 1788366561 | 19.44° C | 53% | 926.2 hPa | 0 mm | - | 236 W/m² | - |
| 1788366257 | 18.89° C | 53% | 926.5 hPa | 0 mm | - | 217 W/m² | - |
| 1788365951 | 18.89° C | 55% | 926.5 hPa | 0 mm | - | 190 W/m² | - |
| 1788365647 | 18.89° C | 55% | 926.3 hPa | 0 mm | - | 181 W/m² | - |
| 1788365343 | 18.89° C | 55% | 926.8 hPa | 0 mm | - | 192 W/m² | - |
| 1788365038 | 18.33° C | 57% | 926.4 hPa | 0 mm | - | 170 W/m² | - |
| 1788364736 | 18.33° C | 58% | 926.3 hPa | 0 mm | - | 148 W/m² | - |
| 1788364435 | 18.33° C | 57% | 926.4 hPa | 0 mm | - | 144 W/m² | - |
| 1788364130 | 18.33° C | 58% | 926.5 hPa | 0 mm | - | 163 W/m² | - |
| 1788363826 | 18.33° C | 59% | 926.7 hPa | 0 mm | - | 178 W/m² | - |
| 1788363525 | 18.33° C | 58% | 926.7 hPa | 0 mm | - | 167 W/m² | - |
| 1788363250 | 18.89° C | 54% | 926.6 hPa | 0 mm | - | 154 W/m² | - |
| 1788362920 | 18.89° C | 53% | 926.6 hPa | 0 mm | - | 137 W/m² | - |
| 1788362617 | 18.89° C | 55% | 926.6 hPa | 0 mm | - | 124 W/m² | - |
| 1788362312 | 18.89° C | 53% | 926.7 hPa | 0 mm | - | 111 W/m² | - |
| 1788362007 | 19.44° C | 52% | 926.7 hPa | 0 mm | - | 109 W/m² | - |
| 1788361707 | 18.89° C | 52% | 926.6 hPa | 0 mm | - | 112 W/m² | - |
| 1788361403 | 18.89° C | 53% | 926.7 hPa | 0 mm | - | 119 W/m² | - |
| 1788361102 | 18.89° C | 53% | 926.8 hPa | 0 mm | - | 126 W/m² | - |
* Rain latest hour (hover to see other rain measurements)
** Current wind speed in m/s (hover to see current wind gust speed)